Location: Malvern Link
(52.1333°N, 2.3000°W)
Time: 10:31:00
(UTC+00:00)

AO-92 - Pass Details

Date: 04 July 2022
Orbit: 470 x 481 km, 97.4° (Epoch: 07 August)

Event Time Altitude Azimuth Distance (km) Brightness Sun altitude
Exits shadow 21:31:09 - 142° (SE) 1,712 ? -7.1°
Reaches altitude 10° 21:31:18 10° 142° (SE) 1,656 ? -7.1°
Maximum altitude 21:34:41 43° 70° (ENE) 693 ? -7.4°
Drops below altitude 10° 21:38:06 10° 358° (N) 1,676 ? -7.7°
Sets 21:40:15 0° 352° (N) 2,563 ? -7.9°
